sat.trackr.live / text

‹ back to catalog

STARLINK-31713

NORAD 59381 · 2024-062H

PAYLOAD ACTIVE UNKNOWN

§ Identity

Operator
Country
US
Launch date
2024-04-02
Launch site
AFWTR
Launch vehicle
Mass (kg)
RCS (m²)

Purposes: comms

External: N2YO · Heavens-Above · Gunter

§ Orbital elements

Epoch: 2026-09-20T17:34:47.974080Z

Period
93.85 min
Inclination
53.1603°
Eccentricity
0.0001150
Mean motion
15.34392272 rev/d
Perigee alt
461.9 km
Apogee alt
463.5 km
Semi-major
6,840.9 km
B*
5.1127e-5
RAAN
68.2787°
Arg perigee
92.4622°
Mean anomaly
267.6512°
Rev number
13,951

§ Raw data

STARLINK-317131 59381U 24062H   26263.73249970  .00001351  00000+0  51127-4 0  99992 59381  53.1603  68.2787 0001150  92.4622 267.6512 15.34392272139512

JSON: /api/v1/satellites/59381 · /tle

For live sub-satellite position, see the globe view (requires WebGL).

§ Visibility from observer

Set your observer location to see the next 7 days of passes ≥ 10°. The values pass through the URL so the page stays shareable.

No JS? Fill the form by hand. The geolocation button needs JavaScript.